Regional Weather Roundup
Issued by NWS

Home | Current Version | Previous Version | Graphics & Text | Print | Product List | Glossary On
Versions: 1 2 3 4 5 6 7 8 9 10 11 12 13 14 15 16 17 18 19 20 21 22 23 24 25 26 27 28 29 30 31 32 33 34 35 36 37 38 39 40 41 42 43 44 45 46 47 48 49 50
124
ASUS43 KLMK 050510
RWRKY
KENTUCKY REGIONAL WEATHER ROUNDUP
NATIONAL WEATHER SERVICE LOUISVILLE KY
1200 AM EST MON DEC 05 2016

NOTE "FAIR" INDICATES FEW OR NO CLOUDS BELOW 12,000 FEET
WITH NO SIGNIFICANT WEATHER AND/OR OBSTRUCTIONS TO VISIBILITY.

KYZ001>023-026-027-061>063-070>075-050600-
WESTERN AND SOUTH CENTRAL KENTUCKY

CITY           SKY/WX    TMP DP  RH WIND       PRES   REMARKS
PADUCAH        CLOUDY    42  36  79 CALM      30.06R
HENDERSON      CLOUDY    39  34  81 W6        30.06S WCI  35
OWENSBORO      CLOUDY    41  36  82 NW7       30.07R
HOPKINSVILLE   CLOUDY    43  40  88 NW6       30.05R
BOWLING GREEN  CLOUDY    46  42  86 W5        30.05R
GLASGOW        CLOUDY    44  44 100 W7        30.03S
$$

KYZ024-025-028>034-038-045-046-053-050600-
NORTH CENTRAL KENTUCKY

CITY           SKY/WX    TMP DP  RH WIND       PRES   REMARKS
LOUISVILLE/SDF CLOUDY    44  39  82 W15       30.02R
LOUISVILLE/LOU CLOUDY    44  39  82 W9        30.03R
FORT KNOX      CLOUDY    42  38  89 W8        30.01R
$$

KYZ035>037-039>044-047>052-055>060-089>105-050600-
NORTHEAST KENTUCKY

CITY           SKY/WX    TMP DP  RH WIND       PRES   REMARKS
LEXINGTON      CLOUDY    45  41  86 W14       29.99R
COVINGTON      CLOUDY    42  39  89 W17       29.95R
FRANKFORT      CLOUDY    45  40  82 W9        29.98R
$$

KYZ054-064>069-076>088-106>120-050600-
SOUTHEAST KENTUCKY

CITY           SKY/WX    TMP DP  RH WIND       PRES   REMARKS
JACKSON        CLOUDY    45  43  93 VRB6      29.97R
LONDON         CLOUDY    46  44  93 SW7       30.00R
SOMERSET       CLOUDY    45  45 100 W7        30.03R
MIDDLESBORO    DRIZZLE   46  46 100 CALM      30.02R
MONTICELLO     CLOUDY    47  45  93 W15       30.04R
$$





USA.gov is the U.S. government's official web portal to all federal, state and local government web resources and services.